Home > Time Zones > World Clock > Weather > China > Hefei > Past weeks

Flag for China Weather past 2 weeks in Hefei, Anhui, China

Now
57 °F

Clear.


Feels Like: 57 °F
Forecast: 52 / 77 °F
Wind: 1 mph from North

Location: Hefei Airport

Current Time: Apr 21, 2015 at 9:57:33 PM

Latest Report: Apr 21, 2015 at 9:00 PM


Visibility: 10 mi

Pressure: 30.09 "Hg

Humidity: 72%

Dew point: 48 °F

Location of HefeiLocation

Historic Weather in Hefei — Graph

°F

Hefei temperature yesterday

Maximum temperature yesterday: 64 °F (at 3:00 PM)
Minimum temperature yesterday: 52 °F (at 1:00 AM)
Average temperature yesterday: 56 °F

Past Weeks' High & Low Weather Summary

 TemperatureHumidityPressure
High79 °F (Apr 17, 2:00 PM)100% (Apr 8, 3:00 AM)30.48 "Hg (Apr 8, 3:00 AM)
Low34 °F (Apr 8, 6:00 AM)29% (Apr 14, 3:00 PM)29.62 "Hg (Apr 18, 4:00 PM)
Average57 °F69%30.06 "Hg
* Reported Apr 6 8:00 PM — Apr 21 8:00 PM, Hefei, Weather by CustomWeather, © 2015

Note: Actual official high and low records may vary slightly from our data, if they occured in-between our weather recording intervals... More about our weather records

Advertising

Hefei weather history for previous 24 hours

 ConditionsComfort  
Time TempWeatherWind HumidityBarometerVisibility
8:00 PM
Tue, Apr 21
63 °FClear.3 mph49%30.07 "Hg10 mi
7:00 PM64 °FClear.No wind46%30.04 "Hg10 mi
6:00 PM66 °FSunny.1 mph43%30.04 "Hg10 mi
5:00 PM68 °FPassing clouds.3 mph38%30.04 "HgN/A
4:00 PM70 °FSunny.6 mph35%30.04 "Hg10 mi
3:00 PM70 °FSunny.3 mph33%30.04 "Hg10 mi
2:00 PM68 °FSunny.3 mph33%30.07 "Hg10 mi
1:00 PM66 °FPassing clouds.3 mph35%30.09 "HgN/A
12:00 PM66 °FSunny.3 mph32%30.09 "Hg10 mi
11:00 AM64 °FPassing clouds.3 mph34%30.12 "HgN/A
10:00 AM63 °FPassing clouds.3 mph42%30.12 "HgN/A
9:00 AM59 °FSunny.1 mph51%30.12 "Hg10 mi
8:00 AM57 °FClear.1 mph67%30.12 "Hg5 mi
7:00 AM50 °FClear.No wind94%30.09 "Hg4 mi
6:00 AM50 °FClear.1 mph76%30.09 "Hg5 mi
5:00 AM48 °FClear.1 mph94%30.07 "Hg4 mi
4:00 AM50 °FClear.1 mph88%30.04 "Hg4 mi
3:00 AM50 °FClear.1 mph94%30.04 "Hg4 mi
2:00 AM52 °FClear.1 mph94%30.07 "Hg4 mi
1:00 AM50 °FFog.1 mph100%30.07 "Hg3 mi
12:00 AM54 °FFog.1 mph88%30.07 "Hg2 mi
11:00 PM
Mon, Apr 20
55 °FFog.1 mph77%30.07 "Hg3 mi
10:00 PM55 °FClear.3 mph82%30.07 "Hg4 mi
9:00 PM55 °FClear.1 mph82%30.04 "Hg4 mi
Weather by CustomWeather, © 2015

See weather overviewHow to use our weather pages